Location: Colebrook
(42.0017°N, 73.0973°W)
Time: 14:31:41
(UTC-05:00)

Vanguard 2 - Pass Details

Date: 03 November 2021
Orbit: 554 x 2936 km, 32.9° (Epoch: 04 December)

Event Time Altitude Azimuth Distance (km) Brightness Sun altitude
Exits shadow 04:37:53 29° 193° (SSW) 2,568 9.9 -31.9°
Drops below altitude 10° 04:42:55 10° 155° (SSE) 3,212 10.9 -31.0°
Sets 04:45:35 0° 145° (SE) 3,888 11.5 -30.5°
